This demonstration page uses our WeatherBlox Daily Observations layout. Learn more.

Left ArrowRight Arrow

39.08367, -84.50855

Hourly Observations for September 16, 2015

Temp ( °F °C ) Dew Point ( °F °C ) Humidity (%) Winds ( mph kmh ) Pressure ( in mb ) Visibility ( mi km ) Precip ( " mm )
12:53 am 00:53 Clear 56 13.3 56 13.3 100 100 Calm 30.31 1026 10 16 0.00 0.00
1:53 am 01:53 Clear 55 12.8 55 12.8 100 100 NE 3 6 30.31 1026 9 14 0.00 0.00
2:29 am 02:29 Clear with Mist and Fog 54 12.2 54 12.2 100 100 Calm 30.30 1026 2 3 0.00 0.00
2:38 am 02:38 Clear with Mist and Fog 54 12 54 12 100 100 Calm 30.30 1026 3 5 0.00 0.00
2:53 am 02:53 Clear 54 12.2 54 12.2 100 100 Calm 30.31 1026 9 14 0.00 0.00
3:43 am 03:43 Clear with Mist and Fog 52 11.1 52 11.1 100 100 Calm 30.33 1027 2 3 0.00 0.00
3:53 am 03:53 Clear with Mist and Fog 53 11.7 53 11.7 100 100 Calm 30.31 1027 1 2 0.00 0.00
3:57 am 03:57 Clear with Mist and Fog 53 11.7 53 11.7 100 100 Calm 30.33 1027 3 5 0.00 0.00
4:05 am 04:05 Mostly Clear with Mist and Fog 53 11.7 53 11.7 100 100 Calm 30.33 1027 3 4 0.00 0.00
4:15 am 04:15 Mostly Cloudy 53 11.7 53 11.7 100 100 Calm 30.33 1027 7 11 0.00 0.00
4:23 am 04:23 Mostly Cloudy with Mist and Fog 53 11.7 53 11.7 100 100 Calm 30.33 1027 2 2 0.00 0.00
4:33 am 04:33 Partly Cloudy with Mist and Fog 53 11.7 53 11.7 100 100 Calm 30.33 1027 3 4 0.00 0.00
4:40 am 04:40 Partly Cloudy 53 11.7 53 11.7 100 100 Calm 30.33 1027 9 14 0.00 0.00
4:53 am 04:53 Mostly Cloudy 54 12.2 54 12.2 100 100 Calm 30.32 1027 9 14 0.00 0.00
5:53 am 05:53 Cloudy 54 12.2 54 12.2 100 100 Calm 30.33 1027 7 11 0.00 0.00
6:01 am 06:01 Cloudy with Mist and Fog 54 12.2 54 12.2 100 100 Calm 30.33 1027 2 3 0.00 0.00
6:08 am 06:08 Mostly Cloudy with Fog 54 12 54 12 100 100 Calm 30.33 1027 0 0 0.00 0.00
6:45 am 06:45 Mostly Cloudy with Fog 53 11.7 53 11.7 100 100 Calm 30.33 1027 0 0 0.00 0.00
6:53 am 06:53 Mostly Cloudy with Mist and Fog 53 11.7 53 11.7 100 100 Calm 30.33 1027 1 2 0.00 0.00
7:53 am 07:53 Partly Cloudy with Mist and Fog 53 11.7 53 11.7 100 100 Calm 30.34 1028 2 2 0.00 0.00
8:17 am 08:17 Partly Cloudy with Mist and Fog 54 12.2 54 12.2 100 100 Calm 30.36 1028 3 4 0.00 0.00
8:37 am 08:37 Sunny 56 13.3 56 13.3 100 100 Calm 30.36 1028 8 13 0.00 0.00
8:53 am 08:53 Sunny 57 13.9 57 13.9 100 100 Calm 30.35 1028 8 13 0.00 0.00
9:53 am 09:53 Sunny 64 17.8 59 15 84 84 Calm 30.35 1028 10 16 0.00 0.00
10:53 am 10:53 Sunny 69 20.6 60 15.6 73 73 Calm 30.35 1028 10 16 0.00 0.00
11:53 am 11:53 Sunny 75 23.9 59 15 58 58 S 5 7 30.33 1027 10 16 0.00 0.00
12:53 pm 12:53 Sunny 77 25 56 13.3 48 48 SSE 5 7 30.32 1027 10 16 0.00 0.00
1:53 pm 13:53 Sunny 79 26.1 57 13.9 47 47 S 7 11 30.29 1026 10 16 0.00 0.00
2:53 pm 14:53 Sunny 79 26.1 55 12.8 44 44 Calm 30.27 1025 10 16 0.00 0.00
3:53 pm 15:53 Sunny 80 26.7 59 15 49 49 S 7 11 30.24 1024 10 16 0.00 0.00
4:53 pm 16:53 Sunny 80 26.7 56 13.3 44 44 SSW 10 17 30.23 1024 10 16 0.00 0.00
5:53 pm 17:53 Sunny 79 26.1 58 14.4 49 49 SSW 7 11 30.22 1023 10 16 0.00 0.00
6:53 pm 18:53 Sunny 77 25 60 15.6 56 56 Calm 30.21 1023 10 16 0.00 0.00
7:53 pm 19:53 Clear 69 20.6 63 17.2 81 81 Calm 30.20 1023 10 16 0.00 0.00
8:53 pm 20:53 Clear 64 17.8 61 16.1 90 90 Calm 30.20 1023 10 16 0.00 0.00
9:53 pm 21:53 Clear 61 16.1 60 15.6 97 97 Calm 30.21 1023 10 16 0.00 0.00
10:53 pm 22:53 Clear 59 15 59 15 100 100 Calm 30.21 1023 10 16 0.00 0.00
11:53 pm 23:53 Clear 60 15.6 60 15.6 100 100 Calm 30.21 1023 10 16 0.00 0.00

Powered by AerisWeather